World > North America > United States > Nebraska   City of North Platte, NE

North Platte, Nebraska Regional Weather

Lat: 41.13N, Lon: 100.77W
Wx Zone: NEZ059Web Search
North Platte Weather Warning NWS WEATHER ALERT FOR THE NORTH PLATTE, NE AREA - Issued: 314 PM CST Tue Mar 2 2021 North Platte Weather Warning  

Pass this page to a friend. Tell them to point their camera at the QR Code near the bottom of this page.

Feedback
North Platte Weather Map
UTC Time: 3/2/2021, 23:17
Your Time:

North Platte, NE Regional Weather

Expires:202103030000;;380575
ASUS43 KOAX 022310
RWRNE 

WEATHER ROUNDUP FOR NEBRASKA
NATIONAL WEATHER SERVICE OMAHA NE
500 PM CST TUE MAR 02 2021

NOTES: SATELLITE DATA IS BEING USED TO AUGMENT CLOUD COVER ABOVE
       12000 FEET.
       "FAIR" INDICATES FEW OR NO CLOUDS BELOW 12,000 FEET WITH NO
       SIGNIFICANT WEATHER AND/OR OBSTRUCTIONS TO VISIBILITY.

   

NEZ057>060-069>072-079>082-030000-
SOUTHWEST NEBRASKA
  
CITY           SKY/WX    TMP DP  RH WIND       PRES   REMARKS
NORTH PLATTE   SUNNY     67  22  18 N6        29.89S                  
IMPERIAL       SUNNY     65  20  17 N14       29.90F                  
LEXINGTON      SUNNY     65  26  22 NW10      29.88F                  
MCCOOK         SUNNY     68  16  13 N6        29.88F                  
OGALLALA       SUNNY     62  19  18 N8        29.91S                  
$$
 

SKY/WX - Weather  TMP - Temperature  DP - Dew Point  RH - Relative Humidity
WIND - Wind Direction/Speed PRES - Barometric Pressure VSB - Visibility
WCI - Wind Chill Index E13G22 Wind - East Wind 13 mph/Gusts of 22 mph